"Sample Date","Sample Time","Sensor Name","Sample Value","Units","Flow Rate","Sample Interval","Sample Volume","Laser Status","Number Channels","Micron Size 0","Counts/Channel 0","Micron Size 1","Counts/Channel 1","Micron Size 2","Counts/Channel 2","Micron Size 3","Counts/Channel 3","Micron Size 4","Counts/Channel 4","Micron Size 5","Counts/Channel 5","Micron Size 6","Counts/Channel 6","Micron Size 7","Counts/Channel 7","Micron Size 8","Counts/Channel 8","Micron Size 9","Counts/Channel 9","Micron Size 10","Counts/Channel 10","Micron Size 11","Counts/Channel 11","Micron Size 12","Counts/Channel 12","Micron Size 13","Counts/Channel 13","Micron Size 14","Counts/Channel 14","Micron Size 15","Counts/Channel 15","Micron Size 16","Counts/Channel 16","Micron Size 17","Counts/Channel 17","Micron Size 18","Counts/Channel 18","Micron Size 19","Counts/Channel 19","Micron Size 20","Counts/Channel 20","Micron Size 21","Counts/Channel 21","Micron Size 22","Counts/Channel 22","Micron Size 23","Counts/Channel 23","Micron Size 24","Counts/Channel 24","Micron Size 25","Counts/Channel 25","Micron Size 26","Counts/Channel 26","Micron Size 27","Counts/Channel 27","Micron Size 28","Counts/Channel 28","Micron Size 29","Counts/Channel 29","Micron Size 30","Counts/Channel 30","Micron Size 31","Counts/Channel 31"
"07/03/06","21:00:02","AMMA06",71203.000,"cc",28324.693,6.00,2832.470,1,6,0.100,36907.000,0.200,25126.000,0.300,5835.000,0.500,2033.000,1.000,1301.000,5.000,1.000
"07/03/06","21:00:08","AMMA06",72037.000,"cc",28291.559,6.00,2829.156,1,6,0.100,37093.000,0.200,25532.000,0.300,5980.000,0.500,2060.000,1.000,1372.000,5.000,0
"07/03/06","21:00:14","AMMA06",71407.000,"cc",28375.014,6.00,2837.502,1,6,0.100,36713.000,0.200,25381.000,0.300,5985.000,0.500,2060.000,1.000,1265.000,5.000,3.000
"07/03/06","21:00:20","AMMA06",71545.000,"cc",28335.475,6.00,2833.548,1,6,0.100,36789.000,0.200,25472.000,0.300,5844.000,0.500,2038.000,1.000,1402.000,5.000,0
"07/03/06","21:00:26","AMMA06",71684.000,"cc",28331.070,6.00,2833.107,1,6,0.100,37007.000,0.200,25302.000,0.300,5899.000,0.500,2050.000,1.000,1425.000,5.000,1.000
"07/03/06","21:00:32","AMMA06",72323.000,"cc",28373.248,6.00,2837.325,1,6,0.100,36809.000,0.200,26071.000,0.300,6005.000,0.500,2070.000,1.000,1368.000,5.000,0
"07/03/06","21:00:38","AMMA06",71452.000,"cc",28319.811,6.00,2831.981,1,6,0.100,36484.000,0.200,25581.000,0.300,6003.000,0.500,2066.000,1.000,1317.000,5.000,1.000
"07/03/06","21:00:44","AMMA06",71984.000,"cc",28267.440,6.00,2826.744,1,6,0.100,36956.000,0.200,25420.000,0.300,6078.000,0.500,2136.000,1.000,1390.000,5.000,4.000
"07/03/06","21:00:50","AMMA06",71773.000,"cc",28329.770,6.00,2832.977,1,6,0.100,37007.000,0.200,25513.000,0.300,5902.000,0.500,2023.000,1.000,1328.000,5.000,0
"07/03/06","21:00:56","AMMA06",72245.000,"cc",28310.377,6.00,2831.038,1,6,0.100,36681.000,0.200,26044.000,0.300,6103.000,0.500,2053.000,1.000,1363.000,5.000,1.000
"07/03/06","21:01:02","AMMA06",72516.000,"cc",28300.088,6.00,2830.009,1,6,0.100,37192.000,0.200,25923.000,0.300,6013.000,0.500,2063.000,1.000,1325.000,5.000,0
"07/03/06","21:01:08","AMMA06",72930.000,"cc",28316.641,6.00,2831.664,1,6,0.100,37068.000,0.200,26347.000,0.300,6231.000,0.500,1999.000,1.000,1285.000,5.000,0
"07/03/06","21:01:14","AMMA06",72113.000,"cc",28322.172,6.00,2832.217,1,6,0.100,36834.000,0.200,25899.000,0.300,6088.000,0.500,1998.000,1.000,1292.000,5.000,2.000
"07/03/06","21:01:20","AMMA06",72398.000,"cc",28351.699,6.00,2835.170,1,6,0.100,36693.000,0.200,26050.000,0.300,6160.000,0.500,2050.000,1.000,1444.000,5.000,1.000
"07/03/06","21:01:26","AMMA06",71727.000,"cc",28265.984,6.00,2826.599,1,6,0.100,36194.000,0.200,25992.000,0.300,6089.000,0.500,2008.000,1.000,1444.000,5.000,0
"07/03/06","21:01:32","AMMA06",72111.000,"cc",28305.215,6.00,2830.522,1,6,0.100,36465.000,0.200,26029.000,0.300,6187.000,0.500,2094.000,1.000,1336.000,5.000,0
"07/03/06","21:01:38","AMMA06",72419.000,"cc",28362.988,6.00,2836.299,1,6,0.100,36509.000,0.200,26143.000,0.300,6315.000,0.500,2063.000,1.000,1387.000,5.000,2.000
"07/03/06","21:01:44","AMMA06",71657.000,"cc",28288.551,6.00,2828.855,1,6,0.100,36347.000,0.200,25741.000,0.300,6228.000,0.500,1987.000,1.000,1353.000,5.000,1.000
"07/03/06","21:01:50","AMMA06",71655.000,"cc",28290.076,6.00,2829.008,1,6,0.100,36283.000,0.200,25849.000,0.300,6211.000,0.500,1963.000,1.000,1348.000,5.000,1.000
"07/03/06","21:01:56","AMMA06",72247.000,"cc",28319.559,6.00,2831.956,1,6,0.100,36688.000,0.200,25910.000,0.300,6162.000,0.500,2062.000,1.000,1425.000,5.000,0
"07/03/06","21:02:02","AMMA06",72067.000,"cc",28314.225,6.00,2831.423,1,6,0.100,36442.000,0.200,26063.000,0.300,6143.000,0.500,2073.000,1.000,1343.000,5.000,3.000
"07/03/06","21:02:08","AMMA06",71720.000,"cc",28378.756,6.00,2837.876,1,6,0.100,36865.000,0.200,25617.000,0.300,5957.000,0.500,1965.000,1.000,1314.000,5.000,2.000
"07/03/06","21:02:14","AMMA06",71672.000,"cc",28279.273,6.00,2827.928,1,6,0.100,36236.000,0.200,25856.000,0.300,6195.000,0.500,1966.000,1.000,1415.000,5.000,4.000
"07/03/06","21:02:20","AMMA06",71841.000,"cc",28312.055,6.00,2831.206,1,6,0.100,36764.000,0.200,25573.000,0.300,6098.000,0.500,2038.000,1.000,1368.000,5.000,0
"07/03/06","21:02:26","AMMA06",71757.000,"cc",28329.008,6.00,2832.901,1,6,0.100,36422.000,0.200,25793.000,0.300,6196.000,0.500,1993.000,1.000,1352.000,5.000,1.000
"07/03/06","21:02:32","AMMA06",71930.000,"cc",28317.344,6.00,2831.735,1,6,0.100,36635.000,0.200,25808.000,0.300,6067.000,0.500,2033.000,1.000,1387.000,5.000,0
"07/03/06","21:02:38","AMMA06",71623.000,"cc",28314.893,6.00,2831.490,1,6,0.100,36596.000,0.200,25505.000,0.300,6041.000,0.500,2090.000,1.000,1390.000,5.000,1.000
"07/03/06","21:02:44","AMMA06",71766.000,"cc",28317.211,6.00,2831.721,1,6,0.100,36729.000,0.200,25600.000,0.300,6111.000,0.500,2031.000,1.000,1290.000,5.000,5.000
"07/03/06","21:02:50","AMMA06",71554.000,"cc",28318.934,6.00,2831.894,1,6,0.100,36607.000,0.200,25561.000,0.300,6036.000,0.500,1978.000,1.000,1372.000,5.000,0
"07/03/06","21:02:56","AMMA06",71495.000,"cc",28360.840,6.00,2836.084,1,6,0.100,36697.000,0.200,25300.000,0.300,6061.000,0.500,2063.000,1.000,1370.000,5.000,4.000
"07/03/06","21:03:02","AMMA06",71734.000,"cc",28267.078,6.00,2826.708,1,6,0.100,36822.000,0.200,25628.000,0.300,6034.000,0.500,1957.000,1.000,1291.000,5.000,2.000
"07/03/06","21:03:08","AMMA06",71458.000,"cc",28372.156,6.00,2837.216,1,6,0.100,36799.000,0.200,25242.000,0.300,6024.000,0.500,1993.000,1.000,1399.000,5.000,1.000
"07/03/06","21:03:14","AMMA06",71655.000,"cc",28302.975,6.00,2830.298,1,6,0.100,36764.000,0.200,25539.000,0.300,5928.000,0.500,2011.000,1.000,1412.000,5.000,1.000
"07/03/06","21:03:20","AMMA06",71607.000,"cc",28280.371,6.00,2828.037,1,6,0.100,36878.000,0.200,25411.000,0.300,5973.000,0.500,1990.000,1.000,1354.000,5.000,1.000
"07/03/06","21:03:26","AMMA06",71404.000,"cc",28327.986,6.00,2832.799,1,6,0.100,36926.000,0.200,25273.000,0.300,5813.000,0.500,2077.000,1.000,1313.000,5.000,2.000
"07/03/06","21:03:32","AMMA06",71264.000,"cc",28327.641,6.00,2832.764,1,6,0.100,36540.000,0.200,25385.000,0.300,5985.000,0.500,1996.000,1.000,1357.000,5.000,1.000
"07/03/06","21:03:38","AMMA06",71307.000,"cc",28303.481,6.00,2830.348,1,6,0.100,36787.000,0.200,25214.000,0.300,5890.000,0.500,2065.000,1.000,1349.000,5.000,2.000
"07/03/06","21:03:44","AMMA06",71423.000,"cc",28288.924,6.00,2828.893,1,6,0.100,36954.000,0.200,25114.000,0.300,5960.000,0.500,2024.000,1.000,1371.000,5.000,0
"07/03/06","21:03:50","AMMA06",71267.000,"cc",28292.781,6.00,2829.278,1,6,0.100,36655.000,0.200,25481.000,0.300,5767.000,0.500,2010.000,1.000,1353.000,5.000,1.000
"07/03/06","21:03:56","AMMA06",71940.000,"cc",28337.641,6.00,2833.764,1,6,0.100,37171.000,0.200,25458.000,0.300,5925.000,0.500,2000.000,1.000,1386.000,5.000,0
"07/03/06","21:04:02","AMMA06",71284.000,"cc",28368.920,6.00,2836.892,1,6,0.100,36810.000,0.200,25352.000,0.300,5752.000,0.500,2062.000,1.000,1308.000,5.000,0
"07/03/06","21:04:08","AMMA06",71267.000,"cc",28328.482,6.00,2832.848,1,6,0.100,36868.000,0.200,25161.000,0.300,5830.000,0.500,2078.000,1.000,1329.000,5.000,1.000
"07/03/06","21:04:14","AMMA06",70909.000,"cc",28302.867,6.00,2830.287,1,6,0.100,36921.000,0.200,25001.000,0.300,5678.000,0.500,1995.000,1.000,1313.000,5.000,1.000
"07/03/06","21:04:20","AMMA06",70645.000,"cc",28336.588,6.00,2833.659,1,6,0.100,36715.000,0.200,25024.000,0.300,5552.000,0.500,2059.000,1.000,1294.000,5.000,1.000
"07/03/06","21:04:26","AMMA06",71031.000,"cc",28327.156,6.00,2832.716,1,6,0.100,37215.000,0.200,24700.000,0.300,5693.000,0.500,2120.000,1.000,1302.000,5.000,1.000
"07/03/06","21:04:32","AMMA06",71508.000,"cc",28288.539,6.00,2828.854,1,6,0.100,37043.000,0.200,25312.000,0.300,5815.000,0.500,2001.000,1.000,1337.000,5.000,0
"07/03/06","21:04:38","AMMA06",71408.000,"cc",28361.961,6.00,2836.196,1,6,0.100,37240.000,0.200,25117.000,0.300,5633.000,0.500,2102.000,1.000,1315.000,5.000,1.000
"07/03/06","21:04:44","AMMA06",71066.000,"cc",28334.785,6.00,2833.479,1,6,0.100,37130.000,0.200,24824.000,0.300,5760.000,0.500,2042.000,1.000,1307.000,5.000,3.000
"07/03/06","21:04:50","AMMA06",71456.000,"cc",28299.988,6.00,2829.999,1,6,0.100,37185.000,0.200,25187.000,0.300,5787.000,0.500,2029.000,1.000,1267.000,5.000,1.000
"07/03/06","21:04:56","AMMA06",71140.000,"cc",28316.953,6.00,2831.696,1,6,0.100,37118.000,0.200,25012.000,0.300,5781.000,0.500,1951.000,1.000,1276.000,5.000,2.000
"07/03/06","21:05:02","AMMA06",71092.000,"cc",28291.500,6.00,2829.150,1,6,0.100,36714.000,0.200,25204.000,0.300,5801.000,0.500,2026.000,1.000,1346.000,5.000,1.000
"07/03/06","21:05:08","AMMA06",71930.000,"cc",28302.029,6.00,2830.203,1,6,0.100,37135.000,0.200,25657.000,0.300,5778.000,0.500,2048.000,1.000,1309.000,5.000,3.000
"07/03/06","21:05:14","AMMA06",71464.000,"cc",28345.492,6.00,2834.549,1,6,0.100,37193.000,0.200,25164.000,0.300,5819.000,0.500,1879.000,1.000,1409.000,5.000,0
"07/03/06","21:05:20","AMMA06",71401.000,"cc",28340.486,6.00,2834.049,1,6,0.100,37106.000,0.200,25093.000,0.300,5869.000,0.500,1995.000,1.000,1334.000,5.000,4.000
"07/03/06","21:05:26","AMMA06",71897.000,"cc",28262.090,6.00,2826.209,1,6,0.100,37203.000,0.200,25535.000,0.300,5660.000,0.500,2115.000,1.000,1384.000,5.000,0
"07/03/06","21:05:32","AMMA06",71665.000,"cc",28312.690,6.00,2831.269,1,6,0.100,37228.000,0.200,25296.000,0.300,5781.000,0.500,2072.000,1.000,1287.000,5.000,1.000
"07/03/06","21:05:38","AMMA06",71441.000,"cc",28337.490,6.00,2833.749,1,6,0.100,37054.000,0.200,25177.000,0.300,5806.000,0.500,2084.000,1.000,1317.000,5.000,3.000
"07/03/06","21:05:44","AMMA06",71586.000,"cc",28328.154,6.00,2832.816,1,6,0.100,37045.000,0.200,25361.000,0.300,5825.000,0.500,2055.000,1.000,1300.000,5.000,0
"07/03/06","21:05:50","AMMA06",71448.000,"cc",28330.713,6.00,2833.072,1,6,0.100,37172.000,0.200,25239.000,0.300,5699.000,0.500,2055.000,1.000,1281.000,5.000,2.000
"07/03/06","21:05:56","AMMA06",71224.000,"cc",28384.238,6.00,2838.424,1,6,0.100,36903.000,0.200,25253.000,0.300,5703.000,0.500,2009.000,1.000,1355.000,5.000,1.000
"07/03/06","21:06:02","AMMA06",71260.000,"cc",28303.924,6.00,2830.393,1,6,0.100,36789.000,0.200,25082.000,0.300,5982.000,0.500,2013.000,1.000,1390.000,5.000,4.000
"07/03/06","21:06:08","AMMA06",71588.000,"cc",28283.455,6.00,2828.346,1,6,0.100,37177.000,0.200,25233.000,0.300,5882.000,0.500,1967.000,1.000,1328.000,5.000,1.000
"07/03/06","21:06:14","AMMA06",70976.000,"cc",28274.697,6.00,2827.470,1,6,0.100,36642.000,0.200,25312.000,0.300,5713.000,0.500,1962.000,1.000,1347.000,5.000,0
"07/03/06","21:06:20","AMMA06",71824.000,"cc",28315.127,6.00,2831.513,1,6,0.100,37124.000,0.200,25491.000,0.300,5883.000,0.500,2023.000,1.000,1303.000,5.000,0
"07/03/06","21:06:26","AMMA06",71066.000,"cc",28339.176,6.00,2833.918,1,6,0.100,36584.000,0.200,25220.000,0.300,5909.000,0.500,2017.000,1.000,1333.000,5.000,3.000
"07/03/06","21:06:32","AMMA06",71670.000,"cc",28291.895,6.00,2829.190,1,6,0.100,37153.000,0.200,25371.000,0.300,5830.000,0.500,2005.000,1.000,1310.000,5.000,1.000
"07/03/06","21:06:38","AMMA06",72191.000,"cc",28323.326,6.00,2832.333,1,6,0.100,37003.000,0.200,25750.000,0.300,6004.000,0.500,2028.000,1.000,1403.000,5.000,3.000
"07/03/06","21:06:44","AMMA06",71796.000,"cc",28366.971,6.00,2836.697,1,6,0.100,36977.000,0.200,25420.000,0.300,5962.000,0.500,2096.000,1.000,1341.000,5.000,0
"07/03/06","21:06:50","AMMA06",71699.000,"cc",28301.693,6.00,2830.169,1,6,0.100,36939.000,0.200,25589.000,0.300,5799.000,0.500,2043.000,1.000,1328.000,5.000,1.000
"07/03/06","21:06:56","AMMA06",71582.000,"cc",28279.053,6.00,2827.906,1,6,0.100,36733.000,0.200,25593.000,0.300,5813.000,0.500,2052.000,1.000,1390.000,5.000,1.000
"07/03/06","21:07:02","AMMA06",71289.000,"cc",28311.551,6.00,2831.155,1,6,0.100,36686.000,0.200,25520.000,0.300,5839.000,0.500,1963.000,1.000,1280.000,5.000,1.000
"07/03/06","21:07:08","AMMA06",71953.000,"cc",28315.164,6.00,2831.517,1,6,0.100,37033.000,0.200,25603.000,0.300,5940.000,0.500,2005.000,1.000,1370.000,5.000,2.000
"07/03/06","21:07:14","AMMA06",71775.000,"cc",28331.229,6.00,2833.123,1,6,0.100,36942.000,0.200,25548.000,0.300,5933.000,0.500,2003.000,1.000,1345.000,5.000,4.000
"07/03/06","21:07:20","AMMA06",71905.000,"cc",28375.248,6.00,2837.525,1,6,0.100,36911.000,0.200,25715.000,0.300,6025.000,0.500,1983.000,1.000,1268.000,5.000,3.000
"07/03/06","21:07:26","AMMA06",71505.000,"cc",28317.412,6.00,2831.742,1,6,0.100,36572.000,0.200,25506.000,0.300,6034.000,0.500,2025.000,1.000,1366.000,5.000,2.000
"07/03/06","21:07:32","AMMA06",71510.000,"cc",28307.389,6.00,2830.739,1,6,0.100,36698.000,0.200,25424.000,0.300,6040.000,0.500,1979.000,1.000,1367.000,5.000,2.000
"07/03/06","21:07:38","AMMA06",71801.000,"cc",28261.879,6.00,2826.188,1,6,0.100,36746.000,0.200,25754.000,0.300,5961.000,0.500,2019.000,1.000,1318.000,5.000,3.000
"07/03/06","21:07:44","AMMA06",71739.000,"cc",28324.217,6.00,2832.422,1,6,0.100,36864.000,0.200,25446.000,0.300,6094.000,0.500,1987.000,1.000,1347.000,5.000,1.000
"07/03/06","21:07:50","AMMA06",71798.000,"cc",28352.859,6.00,2835.286,1,6,0.100,36790.000,0.200,25698.000,0.300,5928.000,0.500,2014.000,1.000,1368.000,5.000,0
"07/03/06","21:07:56","AMMA06",71710.000,"cc",28297.217,6.00,2829.722,1,6,0.100,36593.000,0.200,25806.000,0.300,5984.000,0.500,1978.000,1.000,1348.000,5.000,1.000
"07/03/06","21:08:02","AMMA06",71672.000,"cc",28320.742,6.00,2832.075,1,6,0.100,36653.000,0.200,25698.000,0.300,5920.000,0.500,2048.000,1.000,1351.000,5.000,2.000
"07/03/06","21:08:08","AMMA06",71212.000,"cc",28327.879,6.00,2832.788,1,6,0.100,36437.000,0.200,25435.000,0.300,6034.000,0.500,1978.000,1.000,1327.000,5.000,1.000
"07/03/06","21:08:14","AMMA06",71820.000,"cc",28321.568,6.00,2832.157,1,6,0.100,36695.000,0.200,25716.000,0.300,6029.000,0.500,2019.000,1.000,1361.000,5.000,0
"07/03/06","21:08:20","AMMA06",71646.000,"cc",28312.602,6.00,2831.260,1,6,0.100,36467.000,0.200,25632.000,0.300,6193.000,0.500,1992.000,1.000,1359.000,5.000,3.000
"07/03/06","21:08:26","AMMA06",71699.000,"cc",28302.789,6.00,2830.279,1,6,0.100,36445.000,0.200,25858.000,0.300,6029.000,0.500,2028.000,1.000,1339.000,5.000,0
"07/03/06","21:08:32","AMMA06",72046.000,"cc",28261.344,6.00,2826.135,1,6,0.100,36594.000,0.200,25932.000,0.300,6162.000,0.500,1974.000,1.000,1381.000,5.000,3.000
"07/03/06","21:08:38","AMMA06",71419.000,"cc",28334.555,6.00,2833.456,1,6,0.100,36267.000,0.200,25744.000,0.300,5934.000,0.500,2037.000,1.000,1436.000,5.000,1.000
"07/03/06","21:08:44","AMMA06",71745.000,"cc",28338.627,6.00,2833.863,1,6,0.100,36330.000,0.200,25740.000,0.300,6222.000,0.500,2080.000,1.000,1371.000,5.000,2.000
"07/03/06","21:08:50","AMMA06",72045.000,"cc",28322.992,6.00,2832.299,1,6,0.100,36606.000,0.200,25908.000,0.300,6120.000,0.500,2047.000,1.000,1360.000,5.000,4.000
"07/03/06","21:08:56","AMMA06",71940.000,"cc",28306.602,6.00,2830.660,1,6,0.100,36421.000,0.200,26040.000,0.300,6125.000,0.500,1957.000,1.000,1394.000,5.000,3.000
"07/03/06","21:09:02","AMMA06",71622.000,"cc",28325.219,6.00,2832.522,1,6,0.100,36496.000,0.200,25494.000,0.300,6252.000,0.500,1966.000,1.000,1409.000,5.000,5.000
"07/03/06","21:09:08","AMMA06",71903.000,"cc",28287.137,6.00,2828.714,1,6,0.100,36554.000,0.200,25782.000,0.300,6091.000,0.500,2089.000,1.000,1383.000,5.000,4.000
"07/03/06","21:09:14","AMMA06",72148.000,"cc",28339.492,6.00,2833.950,1,6,0.100,36569.000,0.200,26018.000,0.300,6214.000,0.500,2029.000,1.000,1315.000,5.000,3.000
"07/03/06","21:09:20","AMMA06",71827.000,"cc",28265.326,6.00,2826.533,1,6,0.100,36391.000,0.200,26086.000,0.300,6020.000,0.500,1966.000,1.000,1363.000,5.000,1.000
"07/03/06","21:09:26","AMMA06",71749.000,"cc",28324.512,6.00,2832.451,1,6,0.100,36346.000,0.200,25800.000,0.300,6216.000,0.500,2012.000,1.000,1375.000,5.000,0
"07/03/06","21:09:32","AMMA06",72257.000,"cc",28432.020,6.00,2843.202,1,6,0.100,36472.000,0.200,26090.000,0.300,6301.000,0.500,2069.000,1.000,1324.000,5.000,1.000
"07/03/06","21:09:38","AMMA06",72134.000,"cc",28287.848,6.00,2828.785,1,6,0.100,36370.000,0.200,26093.000,0.300,6223.000,0.500,2026.000,1.000,1418.000,5.000,4.000
"07/03/06","21:09:44","AMMA06",72403.000,"cc",28296.676,6.00,2829.668,1,6,0.100,36586.000,0.200,26088.000,0.300,6256.000,0.500,1998.000,1.000,1473.000,5.000,2.000
"07/03/06","21:09:50","AMMA06",72019.000,"cc",28299.941,6.00,2829.994,1,6,0.100,36490.000,0.200,25982.000,0.300,6119.000,0.500,1989.000,1.000,1438.000,5.000,1.000
"07/03/06","21:09:56","AMMA06",72339.000,"cc",28292.859,6.00,2829.286,1,6,0.100,36378.000,0.200,26333.000,0.300,6157.000,0.500,2060.000,1.000,1408.000,5.000,3.000
"07/03/06","21:10:02","AMMA06",71624.000,"cc",28313.168,6.00,2831.317,1,6,0.100,36688.000,0.200,25524.000,0.300,6105.000,0.500,1953.000,1.000,1352.000,5.000,2.000
"07/03/06","21:10:08","AMMA06",72452.000,"cc",28319.281,6.00,2831.928,1,6,0.100,36904.000,0.200,26023.000,0.300,6208.000,0.500,1964.000,1.000,1350.000,5.000,3.000
"07/03/06","21:10:14","AMMA06",72370.000,"cc",28260.990,6.00,2826.099,1,6,0.100,37012.000,0.200,25689.000,0.300,6263.000,0.500,2067.000,1.000,1339.000,5.000,0
"07/03/06","21:10:20","AMMA06",72228.000,"cc",28319.662,6.00,2831.966,1,6,0.100,36418.000,0.200,26102.000,0.300,6279.000,0.500,2045.000,1.000,1381.000,5.000,3.000
"07/03/06","21:10:26","AMMA06",71590.000,"cc",28348.590,6.00,2834.859,1,6,0.100,36640.000,0.200,25447.000,0.300,6118.000,0.500,2006.000,1.000,1373.000,5.000,6.000
"07/03/06","21:10:32","AMMA06",72037.000,"cc",28290.346,6.00,2829.035,1,6,0.100,36568.000,0.200,25953.000,0.300,6135.000,0.500,1978.000,1.000,1402.000,5.000,1.000
"07/03/06","21:10:38","AMMA06",71451.000,"cc",28262.022,6.00,2826.202,1,6,0.100,36190.000,0.200,25878.000,0.300,6040.000,0.500,2005.000,1.000,1335.000,5.000,3.000
"07/03/06","21:10:44","AMMA06",71644.000,"cc",28362.166,6.00,2836.217,1,6,0.100,36488.000,0.200,25659.000,0.300,6210.000,0.500,1965.000,1.000,1321.000,5.000,1.000
"07/03/06","21:10:50","AMMA06",71610.000,"cc",28316.346,6.00,2831.635,1,6,0.100,36469.000,0.200,25753.000,0.300,6057.000,0.500,1975.000,1.000,1356.000,5.000,0
"07/03/06","21:10:56","AMMA06",72211.000,"cc",28384.930,6.00,2838.493,1,6,0.100,37035.000,0.200,25786.000,0.300,5983.000,0.500,2012.000,1.000,1392.000,5.000,3.000
"07/03/06","21:11:02","AMMA06",71793.000,"cc",28311.881,6.00,2831.188,1,6,0.100,37013.000,0.200,25406.000,0.300,5981.000,0.500,2051.000,1.000,1342.000,5.000,0
"07/03/06","21:11:08","AMMA06",71686.000,"cc",28346.764,6.00,2834.677,1,6,0.100,36774.000,0.200,25424.000,0.300,6046.000,0.500,2056.000,1.000,1384.000,5.000,2.000
"07/03/06","21:11:14","AMMA06",71433.000,"cc",28330.170,6.00,2833.017,1,6,0.100,36597.000,0.200,25348.000,0.300,6051.000,0.500,2033.000,1.000,1401.000,5.000,3.000
"07/03/06","21:11:20","AMMA06",71366.000,"cc",28337.772,6.00,2833.777,1,6,0.100,36437.000,0.200,25547.000,0.300,5986.000,0.500,2046.000,1.000,1350.000,5.000,0
"07/03/06","21:11:26","AMMA06",71445.000,"cc",28287.084,6.00,2828.709,1,6,0.100,36893.000,0.200,25170.000,0.300,5992.000,0.500,2055.000,1.000,1333.000,5.000,2.000
"07/03/06","21:11:32","AMMA06",71877.000,"cc",28277.652,6.00,2827.765,1,6,0.100,37070.000,0.200,25582.000,0.300,5894.000,0.500,2036.000,1.000,1294.000,5.000,1.000
"07/03/06","21:11:38","AMMA06",71772.000,"cc",28316.875,6.00,2831.688,1,6,0.100,36887.000,0.200,25491.000,0.300,5992.000,0.500,1983.000,1.000,1418.000,5.000,1.000
"07/03/06","21:11:44","AMMA06",71338.000,"cc",28355.957,6.00,2835.596,1,6,0.100,37004.000,0.200,25155.000,0.300,5865.000,0.500,2027.000,1.000,1284.000,5.000,3.000
"07/03/06","21:11:50","AMMA06",71323.000,"cc",28318.650,6.00,2831.865,1,6,0.100,36903.000,0.200,25100.000,0.300,5904.000,0.500,2081.000,1.000,1334.000,5.000,1.000
"07/03/06","21:11:56","AMMA06",71361.000,"cc",28264.277,6.00,2826.428,1,6,0.100,36775.000,0.200,25292.000,0.300,5977.000,0.500,1977.000,1.000,1338.000,5.000,2.000
"07/03/06","21:12:02","AMMA06",71799.000,"cc",28292.057,6.00,2829.206,1,6,0.100,37153.000,0.200,25380.000,0.300,5913.000,0.500,1990.000,1.000,1362.000,5.000,1.000
"07/03/06","21:12:08","AMMA06",71557.000,"cc",28315.789,6.00,2831.579,1,6,0.100,37025.000,0.200,25336.000,0.300,5823.000,0.500,2017.000,1.000,1353.000,5.000,3.000
"07/03/06","21:12:14","AMMA06",71931.000,"cc",28301.490,6.00,2830.149,1,6,0.100,37366.000,0.200,25303.000,0.300,5782.000,0.500,2123.000,1.000,1355.000,5.000,2.000
"07/03/06","21:12:20","AMMA06",71532.000,"cc",28383.711,6.00,2838.371,1,6,0.100,37049.000,0.200,25267.000,0.300,5925.000,0.500,1999.000,1.000,1289.000,5.000,3.000
"07/03/06","21:12:26","AMMA06",71391.000,"cc",28304.154,6.00,2830.416,1,6,0.100,37203.000,0.200,24995.000,0.300,5856.000,0.500,1992.000,1.000,1345.000,5.000,0
"07/03/06","21:12:32","AMMA06",71405.000,"cc",28274.527,6.00,2827.453,1,6,0.100,37263.000,0.200,25074.000,0.300,5861.000,0.500,1904.000,1.000,1303.000,5.000,0
"07/03/06","21:12:38","AMMA06",71252.000,"cc",28339.402,6.00,2833.940,1,6,0.100,36827.000,0.200,25337.000,0.300,5885.000,0.500,1951.000,1.000,1252.000,5.000,0
"07/03/06","21:12:44","AMMA06",71190.000,"cc",28314.815,6.00,2831.482,1,6,0.100,36950.000,0.200,25077.000,0.300,5872.000,0.500,1999.000,1.000,1292.000,5.000,0
"07/03/06","21:12:50","AMMA06",71562.000,"cc",28333.912,6.00,2833.391,1,6,0.100,36955.000,0.200,25471.000,0.300,5822.000,0.500,1976.000,1.000,1334.000,5.000,4.000
"07/03/06","21:12:56","AMMA06",71964.000,"cc",28355.449,6.00,2835.545,1,6,0.100,37187.000,0.200,25576.000,0.300,5951.000,0.500,1983.000,1.000,1265.000,5.000,2.000
"07/03/06","21:13:02","AMMA06",71581.000,"cc",28305.731,6.00,2830.573,1,6,0.100,37079.000,0.200,25147.000,0.300,5971.000,0.500,2052.000,1.000,1327.000,5.000,5.000
"07/03/06","21:13:08","AMMA06",71470.000,"cc",28322.973,6.00,2832.297,1,6,0.100,36786.000,0.200,25384.000,0.300,5911.000,0.500,2024.000,1.000,1362.000,5.000,3.000
"07/03/06","21:13:14","AMMA06",71488.000,"cc",28297.074,6.00,2829.708,1,6,0.100,36810.000,0.200,25501.000,0.300,5834.000,0.500,2016.000,1.000,1324.000,5.000,3.000
"07/03/06","21:13:20","AMMA06",71671.000,"cc",28304.352,6.00,2830.435,1,6,0.100,36969.000,0.200,25363.000,0.300,6003.000,0.500,2004.000,1.000,1331.000,5.000,1.000
"07/03/06","21:13:26","AMMA06",71406.000,"cc",28361.430,6.00,2836.143,1,6,0.100,36938.000,0.200,25295.000,0.300,5898.000,0.500,1927.000,1.000,1347.000,5.000,1.000
"07/03/06","21:13:32","AMMA06",71114.000,"cc",28299.996,6.00,2830.000,1,6,0.100,36860.000,0.200,25061.000,0.300,5931.000,0.500,1941.000,1.000,1321.000,5.000,0
"07/03/06","21:13:38","AMMA06",71614.000,"cc",28306.725,6.00,2830.673,1,6,0.100,36840.000,0.200,25471.000,0.300,5969.000,0.500,2008.000,1.000,1323.000,5.000,3.000
"07/03/06","21:13:44","AMMA06",72122.000,"cc",28276.131,6.00,2827.613,1,6,0.100,37324.000,0.200,25535.000,0.300,5923.000,0.500,2057.000,1.000,1283.000,5.000,0
"07/03/06","21:13:50","AMMA06",72127.000,"cc",28315.836,6.00,2831.584,1,6,0.100,37268.000,0.200,25622.000,0.300,5896.000,0.500,1986.000,1.000,1353.000,5.000,2.000